Delta Virtual Airport Information Service

Anchorage Ted Stevens International Airport

ICAO: PANC Country: United States
Latitude: 61.1744 Longitude: -149.996
Latest Arrival : GTI541 (KORD-PANC) Latest Departure : DAC776 (PANC-KHSV)


WX CaptureLIVE
Data provided by noaa.gov | Fetched at 08:25:36

METAR : PANC 041253Z 00000KT 10SM FEW070 SCT110 BKN120 12/09 A2980

TAF : PANC 041128Z 0412/0518 20007KT P6SM SCT060 BKN150


Runway Data for PANC
Data provided by openaviationdata.com

Runway ID Mag Var Hdg Length Elevation Surface ILS Freq ILS Id ILS Slope
07L 23 66° 10587 ft 152 ft Asphalt 109.9 ITGN 3
07R 23 66° 10886 ft 152 ft Asphalt 111.3 IANC 3
15 23 141° 11591 ft 152 ft Asphalt 111.75 IBSC 3
25L 23 246° 10886 ft 152 ft Asphalt -- -- --
25R 23 246° 10587 ft 152 ft Asphalt -- -- --
33 23 321° 11591 ft 152 ft Asphalt -- -- --

Anchorage Ted Stevens International Airport, United States
Use only for reference purposes



Not for navigational purposes.